Groton, CT

5:11 AM EDT on April 26, 2018 (GMT -0400)
Groton-New London

Weather History for KGON - May, 2013

Change the Weather History Date:

Sunday, May 12, 2013

  Actual Average Record
Temperature  
Mean Temperature 61 °F -  
Max Temperature 69 °F 66 °F 86 °F (1991)
Min Temperature 52 °F 45 °F 34 °F (1972)
Degree Days  
Heating Degree Days 4    
Growing Degree Days 11 (Base 50)    
Moisture  
Dew Point 49 °F    
Average Humidity 79    
Maximum Humidity 100    
Minimum Humidity 26    
Precipitation  
Precipitation 0.00 in - - ()
Sea Level Pressure  
Sea Level Pressure 29.67 in    
Wind  
Wind Speed 5 mph (SW)    
Max Wind Speed 16 mph    
Max Gust Speed 28 mph    
Visibility 4 miles    
Events Fog , Rain    
Averages and records for this station are not official NWS values.
T = Trace of Precipitation, MM = Missing Value Source: NWS Daily Summary

Daily Weather History Graph

Daily Weather History Graph

Search for Another Location

Airport or City:

Astronomy

May. 12, 2013 Rise Set
Actual Time 5:32 AM EDT 7:57 PM EDT
Civil Twilight 5:01 AM EDT 8:28 PM EDT
Nautical Twilight 4:22 AM EDT 9:07 PM EDT
Astronomical Twilight 3:39 AM EDT 9:50 PM EDT
Moon 7:24 AM EDT (5/12) 10:22 PM EDT (5/12)
Length of Visible Light 15h 27m
Length of Day
14h 25m
Waxing Crescent, 6% of the Moon is Illuminated
May 12
Waxing Crescent
May 18
First Quarter
May 25
Full
May 31
Last Quarter
Jun 8
New

Hourly Weather History & Observations

Time (EDT) Temp. Dew Point Humidity Pressure Visibility Wind Dir Wind Speed Gust Speed Precip Events Conditions
12:14 AM 53.6 °F 53.6 °F 100% 29.71 in 0.2 mi South 3.5 mph - N/A Fog Fog
12:22 AM 53.6 °F 53.6 °F 100% 29.70 in 0.2 mi SSE 3.5 mph - N/A Fog Fog
12:56 AM 55.0 °F 53.1 °F 93% 29.70 in 0.2 mi SSE 3.5 mph - N/A Fog Fog
1:56 AM 57.0 °F 55.0 °F 93% 29.69 in 0.2 mi Calm Calm - N/A Fog Fog
2:56 AM 57.9 °F 55.9 °F 93% 29.66 in 0.2 mi Calm Calm - N/A Fog Fog
3:20 AM 55.4 °F 55.4 °F 100% 29.65 in 0.5 mi ESE 6.9 mph - N/A Fog Fog
3:35 AM 55.4 °F 53.6 °F 94% 29.65 in 0.2 mi SE 4.6 mph - N/A Fog Fog
3:46 AM 55.4 °F 53.6 °F 94% 29.66 in 0.2 mi SSE 4.6 mph - N/A Fog Fog
3:56 AM 54.0 °F 53.1 °F 97% 29.67 in 0.2 mi SSE 4.6 mph - N/A Fog Fog
4:56 AM 53.1 °F 52.0 °F 96% 29.66 in 0.2 mi Calm Calm - N/A Fog Fog
5:05 AM 53.6 °F 51.8 °F 94% 29.66 in 0.2 mi Calm Calm - N/A Fog Fog
5:27 AM 53.6 °F 53.6 °F 100% 29.67 in 0.2 mi Calm Calm - 0.00 in Fog , Rain Light Rain
5:56 AM 54.0 °F 53.1 °F 97% 29.67 in 0.2 mi Calm Calm - 0.00 in Fog , Rain Light Rain
6:37 AM 53.6 °F 53.6 °F 100% 29.66 in 0.2 mi Calm Calm - 0.00 in Fog Fog
6:44 AM 53.6 °F 51.8 °F 94% 29.66 in 0.2 mi Calm Calm - 0.00 in Fog , Rain Light Rain
6:56 AM 54.0 °F 52.0 °F 93% 29.67 in 0.2 mi SSW 5.8 mph - 0.00 in Fog , Rain Light Rain
7:56 AM 55.9 °F 55.0 °F 97% 29.66 in 0.2 mi Calm Calm - 0.00 in Fog Fog
8:32 AM 57.2 °F 55.4 °F 94% 29.66 in 0.5 mi SW 5.8 mph - 0.00 in Fog , Rain Light Rain
8:42 AM 55.4 °F 55.4 °F 100% 29.66 in 1.8 mi SW 6.9 mph - 0.00 in Rain Light Rain
8:47 AM 55.4 °F 53.6 °F 94% 29.66 in 2.0 mi SW 5.8 mph - 0.00 in Rain Light Rain
8:56 AM 57.0 °F 55.0 °F 93% 29.67 in 2.5 mi WSW 6.9 mph - 0.00 in   Overcast
9:09 AM 57.2 °F 55.4 °F 94% 29.66 in 2.0 mi WSW 5.8 mph - N/A   Overcast
9:37 AM 57.2 °F 55.4 °F 94% 29.63 in 2.5 mi Calm Calm - N/A   Overcast
9:45 AM 59.0 °F 55.4 °F 88% 29.63 in 3.0 mi Calm Calm - N/A   Mostly Cloudy
9:56 AM 61.0 °F 57.0 °F 87% 29.63 in 4.0 mi SSW 6.9 mph - N/A   Mostly Cloudy
10:56 AM 59.0 °F 55.0 °F 87% 29.65 in 5.0 mi WSW 10.4 mph - N/A   Scattered Clouds
11:56 AM 60.1 °F 53.1 °F 78% 29.65 in 7.0 mi WSW 13.8 mph - N/A   Clear
12:56 PM 61.0 °F 52.0 °F 72% 29.64 in 8.0 mi WSW 12.7 mph - N/A   Clear
1:56 PM 64.0 °F 51.1 °F 63% 29.63 in 10.0 mi WSW 16.1 mph 24.2 mph N/A   Clear
2:56 PM 66.0 °F 48.9 °F 54% 29.63 in 10.0 mi SW 16.1 mph 21.9 mph N/A   Clear
3:56 PM 68.0 °F 43.0 °F 40% 29.62 in 9.0 mi West 16.1 mph 25.3 mph N/A   Clear
4:56 PM 69.1 °F 39.9 °F 35% 29.63 in 9.0 mi West 16.1 mph 27.6 mph N/A   Clear
5:56 PM 66.0 °F 44.1 °F 45% 29.65 in 9.0 mi NNW 16.1 mph - N/A   Clear
6:56 PM 63.0 °F 43.0 °F 48% 29.68 in 9.0 mi NW 8.1 mph - N/A   Scattered Clouds
7:56 PM 62.1 °F 39.0 °F 43% 29.71 in 10.0 mi WNW 11.5 mph - N/A   Mostly Cloudy
8:56 PM 60.1 °F 25.0 °F 26% 29.75 in 10.0 mi WNW 12.7 mph 19.6 mph N/A   Partly Cloudy
9:56 PM 57.0 °F 26.1 °F 30% 29.79 in 10.0 mi WNW 9.2 mph - N/A   Clear
10:56 PM 55.0 °F 25.0 °F 31% 29.83 in 10.0 mi WNW 12.7 mph 19.6 mph N/A   Clear
11:56 PM 52.0 °F 27.0 °F 38% 29.86 in 10.0 mi WNW 4.6 mph - N/A   Clear